軌道要素
Epoch 2016 Oct. 19.0 TT = JDT 2457680.5
T 2016 Nov. 1.29856 TT MPCW
q 2.8205495 (2000.0) P Q
n 0.09145458 Peri. 140.61971 +0.58939015 -0.80555984
a 4.8790180 Node 273.18322 +0.72497962 +0.56061767
e 0.4219022 Incl. 3.48922 +0.35640400 +0.19178417
P 10.78
From 492 observations 1951 Dec. 1-2017 Mar. 2, mean residual 0".5.
|